QPF
0.00 0.01 0.04 0.04 0.03 0.04 0.03 0.02 0.02 0.01 0.01 0.01 0.01 0.01 0.01 0.01 0.01 0.01 0.01 0.01 0.01 0.01 0.02 0.02 0.02 0.02 0.01 0.01 0.01 0.01 0.01 0.01 0.01 0.01 0.00 0.00 0.01 0.01 0.01 0.01 0.00 0.00 0.01
0.01 0.01 0.04 0.05 0.04 0.05 0.04 0.03 0.02 0.01 0.01 0.01 0.01 0.01 0.01 0.01 0.01 0.01 0.01 0.01 0.01 0.02 0.02 0.03 0.03 0.03 0.02 0.01 0.01 0.01 0.01 0.00 0.01 0.01 0.00 0.00 0.00 0.01 0.01 0.00 0.00 0.01 0.01
0.01 0.02 0.04 0.06 0.05 0.04 0.05 0.05 0.02 0.02 0.02 0.02 0.01 0.02 0.01 0.01 0.00 0.01 0.01 0.01 0.01 0.02 0.02 0.03 0.03 0.03 0.03 0.02 0.01 0.01 0.01 0.00 0.00 0.00 0.00 0.00 0.00 0.01 0.01 0.01 0.01 0.00 0.01
0.03 0.03 0.04 0.07 0.05 0.04 0.05 0.06 0.05 0.03 0.02 0.02 0.01 0.01 0.01 0.01 0.01 0.01 0.01 0.01 0.01 0.01 0.01 0.03 0.04 0.02 0.02 0.02 0.01 0.01 0.01 0.00 0.00 0.00 0.00 0.00 0.01 0.02 0.01 0.01 0.01 0.00 0.00
0.04 0.04 0.05 0.08 0.07 0.05 0.04 0.06 0.06 0.04 0.03 0.02 0.01 0.01 0.01 0.01 0.01 0.01 0.01 0.01 0.01 0.01 0.01 0.03 0.04 0.03 0.02 0.02 0.02 0.02 0.01 0.00 0.00 0.00 0.00 0.00 0.00 0.01 0.01 0.01 0.01 0.01 0.01
0.05 0.07 0.06 0.10 0.09 0.07 0.05 0.06 0.07 0.05 0.03 0.03 0.03 0.03 0.02 0.02 0.01 0.01 0.01 0.01 0.01 0.01 0.01 0.02 0.05 0.03 0.02 0.02 0.02 0.02 0.02 0.00 0.00 0.00 0.00 0.00 0.00 0.01 0.01 0.01 0.01 0.01 0.01
0.06 0.09 0.09 0.11 0.11 0.08 0.05 0.07 0.07 0.06 0.04 0.04 0.05 0.03 0.03 0.02 0.01 0.01 0.01 0.01 0.01 0.02 0.01 0.02 0.04 0.04 0.02 0.02 0.02 0.02 0.01 0.00 0.00 0.00 0.00 0.00 0.00 0.01 0.01 0.01 0.01 0.01 0.01
0.09 0.11 0.13 0.14 0.13 0.11 0.07 0.06 0.08 0.08 0.06 0.05 0.05 0.04 0.03 0.03 0.03 0.02 0.01 0.01 0.01 0.02 0.01 0.01 0.03 0.04 0.03 0.02 0.02 0.01 0.01 0.00 0.00 0.00 0.00 0.00 0.01 0.02 0.01 0.01 0.01 0.01 0.01
0.16 0.14 0.16 0.17 0.15 0.14 0.10 0.08 0.09 0.10 0.08 0.05 0.05 0.04 0.03 0.03 0.03 0.03 0.02 0.01 0.01 0.01 0.01 0.01 0.02 0.03 0.02 0.02 0.02 0.01 0.01 0.00 0.00 0.00 0.00 0.00 0.01 0.04 0.04 0.04 0.03 0.03 0.03
0.21 0.19 0.20 0.25 0.18 0.14 0.13 0.11 0.11 0.10 0.10 0.07 0.04 0.04 0.03 0.03 0.03 0.03 0.03 0.02 0.01 0.01 0.01 0.01 0.02 0.03 0.02 0.02 0.02 0.02 0.01 0.00 0.00 0.00 0.00 0.00 0.01 0.03 0.03 0.03 0.03 0.03 0.02
0.22 0.26 0.24 0.27 0.26 0.17 0.14 0.13 0.12 0.09 0.08 0.07 0.04 0.04 0.04 0.03 0.03 0.02 0.01 0.01 0.02 0.01 0.01 0.01 0.02 0.03 0.02 0.01 0.02 0.02 0.01 0.00 0.00 0.00 0.00 0.00 0.01 0.02 0.02 0.01 0.01 0.01 0.01
0.24 0.32 0.32 0.30 0.27 0.23 0.18 0.15 0.09 0.08 0.07 0.07 0.04 0.04 0.04 0.04 0.03 0.02 0.02 0.02 0.02 0.01 0.01 0.01 0.02 0.02 0.02 0.01 0.02 0.02 0.00 0.00 0.00 0.00 0.00 0.01 0.01 0.02 0.01 0.01 0.01 0.01 0.01
0.24 0.38 0.43 0.40 0.35 0.28 0.23 0.18 0.09 0.06 0.05 0.04 0.03 0.03 0.03 0.04 0.04 0.03 0.03 0.03 0.02 0.01 0.01 0.01 0.01 0.01 0.01 0.01 0.02 0.02 0.00 0.00 0.00 0.00 0.00 0.01 0.01 0.02 0.01 0.01 0.01 0.01 0.01
0.21 0.40 0.54 0.49 0.45 0.35 0.29 0.21 0.12 0.06 0.06 0.04 0.03 0.02 0.02 0.03 0.04 0.05 0.05 0.04 0.03 0.02 0.01 0.01 0.01 0.01 0.02 0.02 0.02 0.02 0.00 0.00 0.00 0.00 0.01 0.01 0.01 0.01 0.01 0.01 0.01 0.01 0.01
0.20 0.35 0.53 0.48 0.46 0.42 0.34 0.26 0.15 0.07 0.07 0.06 0.04 0.02 0.02 0.03 0.04 0.05 0.05 0.05 0.05 0.04 0.02 0.01 0.00 0.01 0.03 0.04 0.03 0.02 0.01 0.00 0.00 0.00 0.00 0.01 0.01 0.02 0.01 0.01 0.02 0.01 0.01
0.23 0.30 0.40 0.41 0.38 0.38 0.36 0.28 0.18 0.08 0.05 0.06 0.06 0.04 0.02 0.02 0.04 0.04 0.05 0.05 0.06 0.05 0.04 0.02 0.01 0.01 0.03 0.03 0.04 0.03 0.02 0.01 0.01 0.00 0.00 0.00 0.00 0.01 0.01 0.01 0.01 0.02 0.02
0.26 0.25 0.28 0.30 0.31 0.31 0.33 0.27 0.19 0.10 0.05 0.04 0.04 0.05 0.05 0.03 0.03 0.03 0.03 0.04 0.05 0.05 0.04 0.04 0.02 0.02 0.04 0.05 0.04 0.04 0.02 0.01 0.01 0.01 0.00 0.00 0.00 0.00 0.01 0.00 0.00 0.01 0.01
0.24 0.24 0.23 0.22 0.26 0.29 0.36 0.33 0.19 0.11 0.06 0.04 0.03 0.03 0.04 0.04 0.03 0.03 0.02 0.03 0.05 0.06 0.05 0.05 0.04 0.03 0.04 0.06 0.03 0.03 0.02 0.01 0.01 0.01 0.01 0.01 0.01 0.01 0.01 0.01 0.01 0.01 0.01
0.20 0.22 0.21 0.20 0.19 0.23 0.29 0.36 0.30 0.17 0.10 0.07 0.06 0.05 0.03 0.03 0.02 0.03 0.02 0.02 0.03 0.06 0.07 0.08 0.07 0.06 0.05 0.07 0.05 0.02 0.02 0.02 0.01 0.01 0.01 0.01 0.01 0.01 0.01 0.01 0.01 0.00 0.00
0.14 0.18 0.20 0.20 0.17 0.17 0.22 0.28 0.29 0.21 0.14 0.08 0.06 0.05 0.03 0.02 0.02 0.02 0.01 0.01 0.01 0.01 0.03 0.05 0.07 0.07 0.07 0.07 0.07 0.04 0.02 0.02 0.01 0.01 0.01 0.01 0.00 0.00 0.00 0.00 0.00 0.00 0.00
0.12 0.11 0.15 0.19 0.18 0.14 0.16 0.22 0.24 0.22 0.15 0.10 0.06 0.04 0.02 0.01 0.01 0.01 0.01 0.01 0.01 0.01 0.01 0.02 0.03 0.04 0.04 0.06 0.08 0.06 0.04 0.02 0.01 0.01 0.01 0.01 0.00 0.00 0.00 0.00 0.00 0.00 0.00
0.10 0.08 0.08 0.15 0.18 0.15 0.13 0.16 0.17 0.16 0.14 0.11 0.08 0.05 0.02 0.01 0.01 0.01 0.01 0.00 0.00 0.01 0.01 0.01 0.01 0.02 0.02 0.03 0.06 0.07 0.05 0.03 0.02 0.01 0.01 0.01 0.01 0.00 0.00 0.00 0.00 0.00 0.00
0.11 0.07 0.05 0.08 0.14 0.16 0.14 0.12 0.13 0.13 0.12 0.09 0.06 0.05 0.04 0.02 0.02 0.01 0.01 0.01 0.01 0.01 0.01 0.01 0.01 0.01 0.02 0.02 0.03 0.05 0.05 0.05 0.02 0.01 0.01 0.01 0.01 0.00 0.00 0.00 0.00 0.00 0.00
0.11 0.08 0.05 0.05 0.09 0.13 0.12 0.09 0.10 0.12 0.12 0.09 0.06 0.05 0.05 0.04 0.03 0.03 0.03 0.03 0.02 0.02 0.02 0.02 0.01 0.02 0.02 0.02 0.02 0.03 0.04 0.04 0.03 0.01 0.01 0.00 0.00 0.00 0.00 0.00 0.00 0.00 0.00
0.09 0.08 0.06 0.05 0.05 0.08 0.09 0.07 0.07 0.09 0.10 0.09 0.06 0.05 0.05 0.05 0.04 0.04 0.05 0.05 0.05 0.04 0.03 0.03 0.02 0.02 0.02 0.02 0.02 0.03 0.03 0.03 0.03 0.02 0.01 0.00 0.00 0.00 0.00 0.00 0.00 0.00 0.00
0.09 0.08 0.07 0.05 0.04 0.05 0.07 0.06 0.04 0.05 0.05 0.06 0.06 0.05 0.04 0.04 0.03 0.02 0.02 0.02 0.02 0.02 0.02 0.01 0.01 0.02 0.02 0.02 0.02 0.02 0.03 0.04 0.04 0.03 0.02 0.01 0.01 0.00 0.00 0.00 0.00 0.00 0.00
MSLP
1011.44 1011.36 1011.49 1011.81 1012.27 1012.78 1013.26 1013.65 1013.92 1014.07 1014.12 1014.14 1014.19 1014.30 1014.51 1014.80 1015.14 1015.49 1015.82 1016.08 1016.28 1016.43 1016.55 1016.68 1016.83 1017.02 1017.22 1017.41 1017.58 1017.69 1017.75 1017.76 1017.73 1017.69 1017.66 1017.67 1017.70 1017.75 1017.79 1017.82 1017.82 1017.78 1017.73
1011.02 1011.02 1011.22 1011.61 1012.11 1012.67 1013.18 1013.61 1013.91 1014.09 1014.18 1014.25 1014.34 1014.50 1014.74 1015.05 1015.41 1015.76 1016.07 1016.31 1016.49 1016.62 1016.73 1016.85 1017.00 1017.18 1017.37 1017.55 1017.70 1017.80 1017.84 1017.84 1017.82 1017.79 1017.78 1017.80 1017.84 1017.88 1017.92 1017.93 1017.91 1017.87 1017.82
1010.60 1010.66 1010.92 1011.36 1011.92 1012.52 1013.08 1013.54 1013.89 1014.11 1014.26 1014.39 1014.53 1014.74 1015.02 1015.34 1015.69 1016.02 1016.29 1016.50 1016.64 1016.75 1016.84 1016.94 1017.08 1017.25 1017.43 1017.61 1017.75 1017.84 1017.89 1017.90 1017.89 1017.89 1017.90 1017.93 1017.98 1018.02 1018.04 1018.03 1017.99 1017.94 1017.88
1010.25 1010.36 1010.67 1011.16 1011.76 1012.38 1012.97 1013.47 1013.85 1014.13 1014.33 1014.52 1014.72 1014.97 1015.27 1015.60 1015.93 1016.23 1016.46 1016.63 1016.73 1016.80 1016.88 1016.97 1017.10 1017.27 1017.45 1017.62 1017.77 1017.87 1017.93 1017.95 1017.97 1017.99 1018.02 1018.07 1018.11 1018.14 1018.15 1018.12 1018.06 1017.99 1017.93
1010.05 1010.20 1010.54 1011.06 1011.67 1012.31 1012.91 1013.42 1013.82 1014.13 1014.37 1014.60 1014.85 1015.13 1015.46 1015.80 1016.12 1016.39 1016.59 1016.71 1016.78 1016.83 1016.89 1016.97 1017.11 1017.28 1017.47 1017.65 1017.80 1017.91 1017.99 1018.03 1018.07 1018.10 1018.15 1018.20 1018.24 1018.26 1018.24 1018.18 1018.10 1018.02 1017.95
1010.03 1010.20 1010.56 1011.08 1011.69 1012.32 1012.90 1013.39 1013.79 1014.10 1014.37 1014.63 1014.91 1015.24 1015.59 1015.94 1016.26 1016.52 1016.70 1016.80 1016.85 1016.88 1016.93 1017.02 1017.16 1017.34 1017.54 1017.73 1017.90 1018.02 1018.10 1018.16 1018.20 1018.24 1018.28 1018.33 1018.35 1018.35 1018.30 1018.23 1018.13 1018.04 1017.97
1010.19 1010.37 1010.73 1011.24 1011.82 1012.41 1012.95 1013.40 1013.77 1014.07 1014.34 1014.62 1014.94 1015.30 1015.69 1016.06 1016.40 1016.66 1016.83 1016.93 1016.97 1017.00 1017.05 1017.15 1017.30 1017.49 1017.70 1017.90 1018.07 1018.20 1018.28 1018.33 1018.37 1018.40 1018.43 1018.45 1018.45 1018.42 1018.35 1018.26 1018.15 1018.06 1017.99
1010.49 1010.66 1011.00 1011.48 1012.02 1012.56 1013.05 1013.45 1013.77 1014.05 1014.31 1014.61 1014.96 1015.36 1015.79 1016.21 1016.57 1016.86 1017.04 1017.14 1017.18 1017.21 1017.27 1017.37 1017.53 1017.73 1017.95 1018.16 1018.33 1018.46 1018.53 1018.57 1018.59 1018.59 1018.58 1018.57 1018.54 1018.48 1018.40 1018.29 1018.18 1018.08 1018.02
1010.84 1010.98 1011.30 1011.75 1012.25 1012.74 1013.17 1013.53 1013.81 1014.07 1014.33 1014.64 1015.02 1015.47 1015.94 1016.41 1016.81 1017.12 1017.33 1017.43 1017.48 1017.51 1017.57 1017.67 1017.83 1018.04 1018.27 1018.49 1018.66 1018.78 1018.85 1018.86 1018.85 1018.82 1018.77 1018.72 1018.65 1018.57 1018.46 1018.34 1018.23 1018.14 1018.08
1011.15 1011.26 1011.56 1011.97 1012.45 1012.90 1013.30 1013.62 1013.89 1014.13 1014.41 1014.74 1015.16 1015.64 1016.17 1016.67 1017.11 1017.45 1017.67 1017.79 1017.83 1017.86 1017.91 1018.01 1018.17 1018.38 1018.61 1018.83 1019.02 1019.14 1019.20 1019.21 1019.17 1019.10 1019.02 1018.93 1018.82 1018.71 1018.58 1018.46 1018.34 1018.25 1018.19
1011.34 1011.42 1011.70 1012.10 1012.56 1013.01 1013.40 1013.72 1013.99 1014.25 1014.54 1014.91 1015.36 1015.88 1016.44 1016.98 1017.45 1017.80 1018.03 1018.14 1018.19 1018.20 1018.24 1018.33 1018.49 1018.70 1018.94 1019.18 1019.38 1019.52 1019.59 1019.59 1019.54 1019.46 1019.34 1019.22 1019.08 1018.94 1018.79 1018.65 1018.53 1018.43 1018.37
1011.38 1011.44 1011.70 1012.10 1012.57 1013.04 1013.45 1013.81 1014.11 1014.40 1014.73 1015.12 1015.60 1016.15 1016.73 1017.28 1017.76 1018.12 1018.35 1018.46 1018.49 1018.50 1018.52 1018.61 1018.76 1018.99 1019.25 1019.51 1019.74 1019.91 1020.01 1020.03 1019.98 1019.89 1019.76 1019.61 1019.45 1019.28 1019.11 1018.95 1018.81 1018.69 1018.61
1011.28 1011.32 1011.58 1012.00 1012.49 1013.00 1013.47 1013.88 1014.24 1014.58 1014.94 1015.37 1015.86 1016.42 1017.00 1017.55 1018.02 1018.37 1018.59 1018.70 1018.73 1018.73 1018.76 1018.84 1019.01 1019.25 1019.54 1019.83 1020.10 1020.32 1020.45 1020.50 1020.48 1020.40 1020.27 1020.11 1019.93 1019.74 1019.55 1019.37 1019.20 1019.06 1018.95
1011.07 1011.11 1011.38 1011.82 1012.36 1012.93 1013.46 1013.94 1014.37 1014.77 1015.17 1015.61 1016.11 1016.65 1017.21 1017.73 1018.19 1018.53 1018.75 1018.86 1018.90 1018.92 1018.96 1019.07 1019.25 1019.52 1019.83 1020.17 1020.48 1020.74 1020.93 1021.02 1021.04 1020.98 1020.86 1020.70 1020.52 1020.31 1020.10 1019.89 1019.70 1019.52 1019.37
1010.84 1010.89 1011.17 1011.64 1012.23 1012.86 1013.47 1014.03 1014.52 1014.97 1015.41 1015.85 1016.33 1016.84 1017.36 1017.85 1018.28 1018.61 1018.84 1018.98 1019.05 1019.11 1019.18 1019.32 1019.54 1019.83 1020.17 1020.54 1020.89 1021.20 1021.42 1021.56 1021.62 1021.59 1021.49 1021.35 1021.17 1020.96 1020.74 1020.51 1020.29 1020.07 1019.88
1010.66 1010.72 1011.02 1011.53 1012.17 1012.86 1013.54 1014.17 1014.72 1015.21 1015.66 1016.09 1016.53 1016.99 1017.46 1017.91 1018.31 1018.65 1018.90 1019.09 1019.22 1019.33 1019.47 1019.65 1019.90 1020.21 1020.58 1020.96 1021.33 1021.66 1021.92 1022.09 1022.18 1022.19 1022.13 1022.01 1021.84 1021.65 1021.42 1021.19 1020.94 1020.70 1020.48
1010.59 1010.68 1011.01 1011.54 1012.22 1012.96 1013.70 1014.38 1014.98 1015.50 1015.94 1016.35 1016.74 1017.14 1017.55 1017.95 1018.33 1018.68 1018.98 1019.22 1019.43 1019.62 1019.83 1020.06 1020.34 1020.67 1021.04 1021.42 1021.78 1022.11 1022.38 1022.58 1022.69 1022.73 1022.71 1022.62 1022.48 1022.31 1022.11 1021.88 1021.63 1021.38 1021.14
1010.68 1010.79 1011.14 1011.70 1012.41 1013.18 1013.96 1014.69 1015.31 1015.84 1016.27 1016.64 1016.98 1017.31 1017.66 1018.02 1018.38 1018.75 1019.09 1019.41 1019.70 1019.98 1020.25 1020.53 1020.83 1021.16 1021.51 1021.86 1022.20 1022.51 1022.77 1022.98 1023.11 1023.18 1023.19 1023.14 1023.05 1022.91 1022.74 1022.54 1022.32 1022.08 1021.83
1010.92 1011.07 1011.44 1012.01 1012.72 1013.52 1014.32 1015.07 1015.71 1016.24 1016.65 1016.98 1017.26 1017.53 1017.81 1018.13 1018.48 1018.86 1019.24 1019.63 1020.00 1020.35 1020.68 1021.00 1021.32 1021.63 1021.94 1022.25 1022.55 1022.82 1023.06 1023.26 1023.41 1023.51 1023.56 1023.55 1023.51 1023.43 1023.30 1023.15 1022.96 1022.74 1022.51
1011.29 1011.47 1011.85 1012.42 1013.13 1013.93 1014.74 1015.49 1016.15 1016.67 1017.07 1017.37 1017.60 1017.80 1018.03 1018.30 1018.63 1019.00 1019.42 1019.86 1020.29 1020.69 1021.07 1021.41 1021.72 1022.01 1022.28 1022.54 1022.79 1023.02 1023.24 1023.43 1023.59 1023.71 1023.80 1023.85 1023.85 1023.82 1023.76 1023.65 1023.51 1023.34 1023.14
1011.75 1011.97 1012.35 1012.90 1013.59 1014.37 1015.17 1015.92 1016.57 1017.10 1017.49 1017.76 1017.95 1018.12 1018.29 1018.52 1018.81 1019.17 1019.60 1020.05 1020.51 1020.95 1021.35 1021.70 1022.00 1022.26 1022.49 1022.70 1022.90 1023.11 1023.30 1023.49 1023.67 1023.82 1023.94 1024.03 1024.08 1024.10 1024.09 1024.04 1023.95 1023.83 1023.68
1012.26 1012.50 1012.88 1013.40 1014.05 1014.79 1015.56 1016.30 1016.95 1017.48 1017.87 1018.14 1018.31 1018.44 1018.58 1018.76 1019.01 1019.35 1019.75 1020.20 1020.66 1021.10 1021.49 1021.84 1022.12 1022.35 1022.55 1022.73 1022.91 1023.09 1023.29 1023.48 1023.68 1023.85 1024.01 1024.13 1024.22 1024.27 1024.30 1024.29 1024.25 1024.18 1024.07
1012.78 1013.04 1013.39 1013.86 1014.46 1015.14 1015.87 1016.58 1017.23 1017.78 1018.18 1018.46 1018.64 1018.76 1018.87 1019.01 1019.23 1019.52 1019.88 1020.29 1020.72 1021.14 1021.51 1021.83 1022.10 1022.31 1022.49 1022.66 1022.84 1023.03 1023.23 1023.44 1023.66 1023.86 1024.03 1024.17 1024.28 1024.35 1024.39 1024.41 1024.40 1024.36 1024.29
1013.27 1013.53 1013.85 1014.27 1014.79 1015.40 1016.08 1016.76 1017.41 1017.96 1018.40 1018.71 1018.92 1019.05 1019.15 1019.27 1019.44 1019.68 1019.99 1020.35 1020.73 1021.11 1021.45 1021.75 1021.99 1022.20 1022.38 1022.56 1022.74 1022.95 1023.17 1023.41 1023.64 1023.86 1024.04 1024.19 1024.29 1024.36 1024.39 1024.41 1024.41 1024.39 1024.35
1013.70 1013.97 1014.25 1014.60 1015.03 1015.57 1016.18 1016.83 1017.47 1018.05 1018.52 1018.88 1019.13 1019.29 1019.40 1019.51 1019.65 1019.85 1020.10 1020.40 1020.73 1021.05 1021.36 1021.63 1021.86 1022.07 1022.26 1022.45 1022.66 1022.89 1023.14 1023.40 1023.65 1023.87 1024.05 1024.18 1024.27 1024.31 1024.32 1024.32 1024.31 1024.29 1024.27
1014.06 1014.33 1014.57 1014.84 1015.20 1015.65 1016.20 1016.81 1017.44 1018.03 1018.55 1018.97 1019.27 1019.48 1019.62 1019.74 1019.86 1020.02 1020.22 1020.47 1020.74 1021.02 1021.29 1021.54 1021.77 1021.97 1022.17 1022.38 1022.61 1022.86 1023.13 1023.41 1023.66 1023.88 1024.05 1024.16 1024.22 1024.23 1024.21 1024.18 1024.14 1024.12 1024.09
Thickness
5726 5730 5732 5732 5733 5732 5732 5732 5732 5731 5731 5731 5731 5731 5730 5730 5729 5729 5729 5729 5729 5729 5729 5729 5729 5729 5728 5728 5727 5726 5725 5724 5724 5723 5722 5722 5721 5721 5720 5719 5718 5717 5716
5725 5727 5728 5729 5729 5729 5729 5729 5728 5728 5728 5728 5728 5727 5727 5727 5726 5726 5726 5726 5727 5727 5726 5726 5726 5726 5725 5725 5724 5723 5723 5722 5721 5720 5719 5719 5718 5717 5716 5715 5714 5714 5713
5720 5722 5724 5725 5725 5725 5725 5725 5725 5725 5725 5724 5724 5724 5724 5723 5723 5723 5723 5723 5723 5724 5724 5723 5723 5723 5722 5722 5721 5720 5720 5719 5718 5717 5716 5715 5715 5714 5713 5712 5711 5710 5709
5714 5717 5719 5720 5721 5721 5721 5721 5721 5721 5721 5721 5721 5720 5720 5720 5720 5720 5720 5720 5720 5720 5720 5720 5720 5720 5719 5719 5718 5717 5717 5716 5715 5714 5713 5712 5712 5711 5710 5709 5708 5706 5706
5707 5710 5713 5714 5716 5717 5717 5716 5716 5717 5717 5717 5717 5717 5717 5716 5716 5716 5716 5716 5716 5716 5717 5717 5717 5717 5716 5716 5715 5715 5713 5713 5712 5711 5710 5709 5708 5708 5707 5705 5704 5703 5702
5700 5703 5706 5708 5710 5711 5712 5712 5712 5712 5712 5713 5713 5713 5713 5713 5712 5712 5712 5712 5712 5713 5713 5713 5713 5713 5713 5713 5712 5711 5710 5709 5708 5707 5706 5706 5705 5704 5703 5702 5700 5699 5698
5691 5696 5699 5702 5704 5705 5707 5708 5708 5707 5708 5708 5709 5709 5709 5708 5708 5708 5708 5708 5709 5709 5710 5710 5710 5710 5709 5709 5708 5707 5706 5706 5705 5704 5703 5702 5701 5701 5700 5698 5696 5695 5694
5683 5687 5691 5694 5697 5699 5701 5702 5702 5703 5703 5703 5704 5704 5704 5704 5704 5704 5704 5704 5705 5705 5705 5706 5706 5706 5705 5705 5704 5703 5703 5702 5701 5700 5699 5698 5697 5697 5696 5694 5693 5691 5690
5674 5679 5683 5687 5690 5692 5694 5696 5697 5698 5698 5698 5698 5699 5699 5699 5699 5699 5699 5700 5700 5701 5701 5701 5701 5701 5701 5700 5700 5699 5698 5697 5696 5696 5695 5694 5694 5693 5692 5690 5689 5687 5686
5665 5670 5675 5679 5682 5685 5688 5689 5691 5691 5692 5692 5693 5693 5693 5693 5694 5694 5694 5695 5696 5696 5696 5697 5697 5696 5696 5696 5695 5695 5694 5693 5692 5691 5690 5690 5689 5689 5687 5686 5684 5683 5682
5656 5661 5666 5672 5675 5678 5681 5682 5683 5684 5685 5686 5687 5687 5687 5688 5688 5688 5689 5690 5691 5691 5692 5692 5691 5691 5691 5690 5690 5690 5689 5687 5687 5686 5685 5685 5684 5683 5682 5680 5679 5678 5677
5646 5652 5657 5663 5667 5671 5673 5674 5675 5676 5677 5678 5680 5681 5682 5682 5682 5683 5683 5684 5685 5685 5686 5686 5686 5686 5685 5685 5685 5684 5683 5682 5681 5680 5680 5680 5679 5678 5676 5675 5674 5672 5671
5637 5642 5648 5654 5659 5662 5664 5665 5667 5668 5669 5671 5673 5675 5675 5676 5676 5677 5677 5677 5678 5679 5679 5680 5680 5680 5680 5679 5679 5678 5678 5676 5675 5675 5674 5674 5673 5672 5671 5669 5668 5667 5666
5629 5634 5640 5646 5649 5652 5656 5658 5659 5661 5662 5663 5665 5667 5669 5669 5669 5670 5670 5671 5671 5672 5673 5673 5674 5674 5673 5673 5673 5672 5671 5670 5669 5668 5668 5667 5666 5665 5664 5663 5662 5661 5660
5622 5627 5633 5639 5641 5643 5647 5650 5651 5653 5655 5656 5658 5660 5662 5662 5662 5663 5663 5664 5665 5665 5666 5667 5667 5667 5667 5667 5667 5666 5665 5664 5663 5662 5660 5660 5659 5658 5657 5656 5655 5654 5653
5616 5621 5627 5630 5632 5635 5640 5642 5644 5645 5647 5649 5651 5653 5655 5656 5656 5657 5657 5657 5659 5660 5660 5660 5660 5661 5661 5660 5660 5659 5658 5657 5656 5654 5653 5652 5651 5650 5649 5648 5647 5647 5646
5609 5614 5619 5622 5625 5627 5631 5635 5636 5639 5641 5642 5643 5645 5647 5649 5650 5651 5651 5651 5652 5653 5654 5653 5654 5654 5654 5653 5652 5651 5650 5649 5648 5646 5645 5644 5642 5641 5641 5640 5639 5638 5638
5603 5608 5613 5616 5618 5620 5623 5626 5629 5632 5634 5636 5637 5638 5640 5641 5643 5644 5644 5645 5645 5646 5647 5647 5646 5646 5645 5645 5644 5642 5641 5640 5639 5638 5637 5635 5634 5633 5632 5631 5630 5629 5629
5597 5602 5605 5608 5611 5614 5616 5619 5622 5625 5627 5629 5631 5632 5633 5634 5636 5637 5637 5638 5638 5639 5639 5640 5638 5637 5636 5635 5635 5634 5632 5631 5630 5629 5628 5627 5625 5624 5623 5621 5620 5620 5619
5592 5596 5599 5602 5605 5608 5610 5613 5616 5618 5620 5622 5624 5624 5626 5627 5628 5629 5630 5630 5631 5631 5631 5631 5629 5628 5626 5626 5627 5625 5623 5622 5621 5620 5619 5617 5616 5615 5614 5612 5611 5610 5610
5587 5590 5594 5597 5600 5602 5605 5608 5610 5611 5613 5615 5616 5617 5618 5620 5621 5621 5622 5622 5623 5623 5622 5622 5621 5620 5618 5618 5617 5614 5613 5612 5612 5610 5609 5608 5607 5605 5604 5603 5602 5601 5600
5583 5586 5589 5592 5596 5598 5600 5603 5605 5605 5606 5607 5608 5609 5611 5612 5613 5613 5614 5614 5615 5614 5614 5614 5613 5611 5609 5608 5607 5606 5604 5603 5602 5602 5600 5599 5597 5596 5595 5594 5593 5591 5591
5579 5582 5586 5588 5590 5593 5595 5597 5599 5599 5598 5599 5600 5601 5603 5604 5605 5606 5606 5607 5606 5607 5606 5605 5605 5604 5601 5598 5598 5598 5596 5595 5591 5592 5591 5590 5588 5586 5586 5585 5583 5582 5581
5574 5577 5581 5583 5585 5587 5589 5591 5594 5594 5593 5594 5594 5594 5594 5596 5597 5598 5598 5599 5598 5598 5597 5597 5596 5595 5594 5591 5589 5587 5585 5584 5582 5581 5581 5580 5578 5577 5576 5576 5574 5573 5571
5570 5572 5576 5578 5580 5582 5583 5586 5587 5587 5587 5587 5587 5586 5587 5588 5589 5590 5590 5590 5590 5589 5589 5588 5587 5586 5584 5582 5580 5577 5575 5573 5572 5572 5571 5569 5568 5568 5567 5566 5565 5563 5562
5566 5569 5572 5573 5575 5576 5578 5580 5581 5582 5581 5580 5579 5579 5580 5580 5581 5581 5582 5581 5581 5580 5580 5579 5577 5576 5574 5572 5570 5568 5567 5565 5563 5560 5559 5557 5556 5557 5557 5557 5556 5554 5553